Regional Weather Roundup
Issued by NWS

Home | Current Version | Previous Version | Text Only | Print | Product List | Glossary On
Versions: 1 2 3 4 5 6 7 8 9 10 11 12 13 14 15 16 17 18 19 20 21 22 23 24 25 26 27 28 29 30 31 32 33 34 35 36 37 38 39 40 41 42 43 44 45 46 47 48 49 50
020
ASUS43 KMKX 031221
RWRWI

WISCONSIN REGIONAL WEATHER ROUNDUP
NATIONAL WEATHER SERVICE MILWAUKEE/SULLIVAN WI
600 AM CST SAT DEC 03 2016

NOTE: "FAIR" INDICATES FEW OR NO CLOUDS BELOW 12,000 FEET WITH NO
SIGNIFICANT WEATHER AND/OR OBSTRUCTIONS TO VISIBILITY.

WIZ001-002-006>008-014>016-023>028-031300-
NORTHWEST WISCONSIN

CITY           SKY/WX    TMP DP  RH WIND       PRES   REMARKS
SUPERIOR ARPT  CLOUDY    29  24  82 SW5       30.29R WCI  24
6HR MIN TEMP:  29; 6HR MAX TEMP:  30;

ASHLAND        CLOUDY    30  26  85 SW5       30.27S WCI  25
6HR MIN TEMP:  29; 6HR MAX TEMP:  30;

HAYWARD        CLOUDY    29  24  82 CALM      30.26S
6HR MIN TEMP:  28; 6HR MAX TEMP:  29;

SIREN          CLOUDY    29  25  84 CALM      30.28S
6HR MIN TEMP:  29; 6HR MAX TEMP:  29;

CUMBERLAND     CLOUDY    28  25  86 W3        30.27S
RICE LAKE      CLOUDY    29  25  83 SW3       30.29S
6HR MIN TEMP:  29; 6HR MAX TEMP:  30;

CHETEK         CLOUDY    29  25  84 CALM      30.29R
6HR MIN TEMP:  29; 6HR MAX TEMP:  29;

LADYSMITH      CLOUDY    29  27  93 SW3       30.29S
6HR MIN TEMP:  28; 6HR MAX TEMP:  29;

EAU CLAIRE     CLOUDY    29  24  82 SW5       30.29S WCI  24
6HR MIN TEMP:  29; 6HR MAX TEMP:  31;

MENOMONIE      CLOUDY    30  26  84 SW6       30.31S WCI  24
6HR MIN TEMP:  30; 6HR MAX TEMP:  32;

NEW RICHMOND   CLOUDY    29  25  84 CALM      30.29S
6HR MIN TEMP:  29; 6HR MAX TEMP:  29;

OSCEOLA        CLOUDY    30  26  84 W5        30.33S WCI  25
6HR MIN TEMP:  30; 6HR MAX TEMP:  30;

$$

WIZ003>005-009-010-017-018-031300-
NORTH CENTRAL WISCONSIN

CITY           SKY/WX    TMP DP  RH WIND       PRES   REMARKS
MANITOWISH WTR CLOUDY    26  26 100 SW5       30.23R WCI  20
6HR MIN TEMP:  25; 6HR MAX TEMP:  27;

ARBOR VITAE    CLOUDY    27  25  93 CALM      30.23R
6HR MIN TEMP:  27; 6HR MAX TEMP:  29;

WOODRUFF       CLOUDY    27  25  93 CALM      30.23R
6HR MIN TEMP:  27; 6HR MAX TEMP:  29;

RHINELANDER    CLOUDY    27  24  89 W7        30.24R WCI  19
6HR MIN TEMP:  27; 6HR MAX TEMP:  29;

EAGLE RIVER    CLOUDY    27  27 100 CALM      30.23R
6HR MIN TEMP:  27; 6HR MAX TEMP:  29;

LAND O LAKES   CLOUDY    28  26  91 CALM      30.24R
6HR MIN TEMP:  28; 6HR MAX TEMP:  29;

PHILLIPS       CLOUDY    26  26  97 SW6       30.25R WCI  20
6HR MIN TEMP:  25; 6HR MAX TEMP:  26;

TOMAHAWK       CLOUDY    26  21  82 CALM      30.26S
6HR MIN TEMP:  26; 6HR MAX TEMP:  28;

MEDFORD        CLOUDY    27  21  77 W6        30.26R WCI  21
6HR MIN TEMP:  27; 6HR MAX TEMP:  27;

MERRILL        CLOUDY    27  24  89 W6        30.28R WCI  20
6HR MIN TEMP:  27; 6HR MAX TEMP:  29;

$$

WIZ029-030-035-036-043>047-031300-
CENTRAL WISCONSIN

CITY           SKY/WX    TMP DP  RH WIND       PRES   REMARKS
WAUSAU         CLOUDY    28  22  78 W5        30.27S WCI  23
6HR MIN TEMP:  28; 6HR MAX TEMP:  29;

MOSINEE        CLOUDY    28  25  86 W10       30.29R WCI  19
MARSHFIELD     CLOUDY    29  22  75 SW5       30.27R WCI  24
6HR MIN TEMP:  28; 6HR MAX TEMP:  29;

STEVENS POINT  CLOUDY    28  22  79 NW7       30.30R WCI  20
6HR MIN TEMP:  28; 6HR MAX TEMP:  28;

WAUPACA        CLOUDY    32  24  72 W7        30.31S WCI  26
6HR MIN TEMP:  32; 6HR MAX TEMP:  33;

WAUTOMA        CLOUDY    30  25  81 W9        30.31  WCI  22
6HR MIN TEMP:  30; 6HR MAX TEMP:  31;

WISC RAPIDS    CLOUDY    30  22  72 W6        30.31R WCI  24
6HR MIN TEMP:  30; 6HR MAX TEMP:  31;

CAMP DOUGLAS   CLOUDY    30  21  69 W9        30.31S WCI  22
6HR MIN TEMP:  30; 6HR MAX TEMP:  31;

$$

WIZ011>013-019>022-031-037>040-048>050-031300-
NORTHEAST WISCONSIN

CITY           SKY/WX    TMP DP  RH WIND       PRES   REMARKS
ANTIGO         CLOUDY    26  23  87 W7        30.25S WCI  19
6HR MIN TEMP:  26; 6HR MAX TEMP:  29;

SHAWANO        CLOUDY    33  25  74 W6        30.30R WCI  27
6HR MIN TEMP:  33; 6HR MAX TEMP:  34;

OCONTO         CLOUDY    32  27  80 W6        30.29R WCI  26
6HR MIN TEMP:  32; 6HR MAX TEMP:  34;

STURGEON BAY   CLOUDY    34  29  82 W5        30.28  WCI  30
6HR MIN TEMP:  34; 6HR MAX TEMP:  36;

GREEN BAY      CLOUDY    34  27  75 W9        30.29R WCI  27
6HR MIN TEMP:  34; 6HR MAX TEMP:  35;

MANITOWOC      CLOUDY    33  26  75 MISG      30.30R
6HR MIN TEMP:  33; 6HR MAX TEMP:  34;

APPLETON       CLOUDY    30  21  69 W7        30.29  WCI  23
CLINTONVILLE   CLOUDY    32  23  69 W5        30.30R WCI  27
OSHKOSH        CLOUDY    31  23  72 W3        30.30R
6HR MIN TEMP:  31; 6HR MAX TEMP:  31;

$$

WIZ032>034-041-042-053>061-031300-
SOUTHWEST WISCONSIN

CITY           SKY/WX    TMP DP  RH WIND       PRES   REMARKS
LA CROSSE      CLOUDY    32  22  66 W13       30.34S WCI  22
6HR MIN TEMP:  31; 6HR MAX TEMP:  33;

SPARTA         CLOUDY    30  22  74 W7        30.33S WCI  23
6HR MIN TEMP:  29; 6HR MAX TEMP:  31;

VIROQUA        CLOUDY    28  24  83 W10       30.32R WCI  19
6HR MIN TEMP:  28; 6HR MAX TEMP:  29;

BOSCOBEL       CLOUDY    32  23  69 VRB6      30.36S WCI  26
6HR MIN TEMP:  32; 6HR MAX TEMP:  33;

PRAIRIE DU CHI CLOUDY    31  22  68 W3        30.36S
6HR MIN TEMP:  31; 6HR MAX TEMP:  32;

PLATTEVILLE    CLOUDY    30  26  85 W8        30.35R WCI  23
6HR MIN TEMP:  30; 6HR MAX TEMP:  31;

$$

WIZ056-057-062-063-064-067-068-031300-
SOUTH CENTRAL WISCONSIN

CITY           SKY/WX    TMP DP  RH WIND       PRES   REMARKS
REEDSBURG      CLOUDY    29  21  70 W9        30.32S WCI  21
6HR MIN TEMP:  30; 6HR MAX TEMP:  31;

BARABOO/DELLS  CLOUDY    30  21  69 W7        30.32R WCI  23
6HR MIN TEMP:  30; 6HR MAX TEMP:  31;

LONE ROCK      CLOUDY    31  21  66 W5        30.35S WCI  26
6HR MIN TEMP:  31; 6HR MAX TEMP:  32;

MINERAL POINT  CLOUDY    32  27  80 W12       30.32R WCI  23
MADISON        CLOUDY    30  22  72 VRB3      30.32S
6HR MIN TEMP:  30; 6HR MAX TEMP:  30;

MIDDLETON      CLOUDY    31  23  72 W9        30.34R WCI  23
6HR MIN TEMP:  31; 6HR MAX TEMP:  32;

WATERTOWN      CLOUDY    30  24  79 W5        30.32R WCI  25
6HR MIN TEMP:  30; 6HR MAX TEMP:  31;

MONROE         CLOUDY    30  23  74 W10       30.33R WCI  21
JANESVILLE     CLOUDY    32  23  69 W6        30.34R WCI  26
$$

WIZ051-052-058>065-066-070>072-031300-
SOUTHEAST WISCONSIN

CITY           SKY/WX    TMP DP  RH WIND       PRES   REMARKS
MILWAUKEE      CLOUDY    33  22  63 W6        30.32S WCI  28
6HR MIN TEMP:  33; 6HR MAX TEMP:  33;

WAUKESHA       CLOUDY    28  21  74 SW10      30.33R WCI  19
MILWAUKEE/TIMM CLOUDY    32  21  64 W7        30.33S WCI  26
RACINE         CLOUDY    32  22  66 W7        30.35R WCI  26
6HR MIN TEMP:  32; 6HR MAX TEMP:  33;

BURLINGTON     CLOUDY    31  24  77 CALM      30.33S
6HR MIN TEMP:  31; 6HR MAX TEMP:  32;

KENOSHA        CLOUDY    31  23  72 W6        30.34R WCI  25
6HR MIN TEMP:  31; 6HR MAX TEMP:  32;

FOND DU LAC    CLOUDY    31  22  69 NW7       30.31R WCI  24
6HR MIN TEMP:  31; 6HR MAX TEMP:  32;

SHEBOYGAN      CLOUDY    31  24  75 W7        30.31R WCI  24
6HR MIN TEMP:  31; 6HR MAX TEMP:  32;

WEST BEND      CLOUDY    30  25  80 W7        30.30F WCI  23
JUNEAU         CLOUDY    30  23  77 W7        30.32S WCI  23
6HR MIN TEMP:  29; 6HR MAX TEMP:  30;

$$

LSZ147-162-031300-
LAKE SUPERIOR

STATION/POSITION TIME  TEMP    WIND        PRES    WAVE
                       AIR SEA DIR/SP/G            HT/PER
                 (UTC) (F)     (DEG/KT/KT) (MB)    (FT/S)
DEVILS ISLAND    1200   33     310/  6/  8 1025.5R
PORT WING        1130   30     210/  6/  9 1025.1S
SAXON HARBOR     1140   31     220/  5/  8 1024.7R
$$

LMZ867-665-643>646-031300-
LAKE MICHIGAN

STATION/POSITION TIME  TEMP    WIND        PRES    WAVE
                C1F1C2F2C3F3C4F4C5F5C6F6C7F7C8M1C9M2Ca!



USA.gov is the U.S. government's official web portal to all federal, state and local government web resources and services.